Regional Weather Roundup
Issued by NWS

Home | Current Version | Previous Version | Text Only | Print | Product List | Glossary On
Versions: 1 2 3 4 5 6 7 8 9 10 11 12 13 14 15 16 17 18 19 20 21 22 23 24 25 26 27 28 29 30 31 32 33 34 35 36 37 38 39 40 41 42 43 44 45 46 47 48 49 50
000
ASUS44 KLIX 060311
RWRLA
LOUISIANA WEATHER ROUNDUP
NATIONAL WEATHER SERVICE NEW ORLEANS LA
1000 PM CDT TUE MAY 05 2015

NOTE: "FAIR" INDICATES FEW OR NO CLOUDS BELOW 12,000 FEET WITH NO
      SIGNIFICANT WEATHER AND/OR OBSTRUCTIONS TO VISIBILITY.
      SKY/WX - SKY CONDITION AND SIGNIFICANT WEATHER.
      TMP - AIR TEMPERATURE.    DP   - DEWPOINT TEMPERATURE.
      RH  - RELATIVE HUMIDITY.  PRES - PRESSURE.
      HX  - HEAT INDEX.         WCI  - WIND CHILL INDEX.

*  THESE STATIONS ARE NOT NWS OR FAA STATIONS AND ARE NOT UNDER
   NWS QUALITY CONTROL.

LAZ040-048-061>063-065-066-069-060400-
SOUTHEAST LOUISIANA

CITY           SKY/WX    TMP DP  RH WIND       PRES   REMARKS
N.O. AUDUBON     N/A     73  64  72 MISG        N/A
N.O. INTL ARPT PTCLDY    72  61  68 SE10      30.12R
N.O. LAKEFRONT CLEAR     74  64  71 SE9       30.13R
SLIDELL        CLEAR     64  62  93 CALM      30.13R
BATON ROUGE    CLEAR     68  61  78 E6        30.12R
BOOTHVILLE     CLEAR     71  66  84 E6        30.12S
BELLE CHASSE   CLEAR     72  63  73 E7        30.12R
BOGALUSA*        N/A     66  59  76 CALM      30.15R
GALLIANO*      MOCLDY    74  65  74 CALM      30.12R
NEW ROADS*     FAIR      70  58  66 E5        30.11R
GONZALES*      FAIR      71  62  73 SE3       30.11R
HAMMOND*       CLEAR     68  59  73 E5        30.15R
HOUMA*         CLEAR     69  63  82 E7        30.12R
PORT FOURCHON* PTCLDY    73  64  73 E15G23    30.14R

$$

LAZ041-044-053-054-060400-
SOUTHWEST LOUISIANA

CITY           SKY/WX    TMP DP  RH WIND       PRES   REMARKS
LAKE CHARLES   CLEAR     73  66  78 SE10      30.06R
LAFAYETTE      CLEAR     73  62  68 VRB3      30.09R
PATTERSON      CLEAR    N/A N/A N/A E9        30.10S
SALT POINT       N/A     71  65  81 SE6       30.08R
NEW IBERIA       N/A    N/A N/A N/A MISG      30.10R
CHENAULT AIRPK CLEAR     70  66  88 SE7       30.07

$$

LAZ027-028-060400-
CENTRAL LOUISIANA

CITY           SKY/WX    TMP DP  RH WIND       PRES   REMARKS
FORT POLK      CLEAR     73  63  72 SE7       30.06R
ALEXANDRIA INT MOCLDY    70  67  90 CALM      30.07R
ALEXANDRIA     CLEAR     75  59  57 SE9       30.09R

$$

LAZ001-002-060400-
NORTHWEST LOUISIANA

CITY           SKY/WX    TMP DP  RH WIND       PRES   REMARKS
SHREVEPORT     MOCLDY    75  63  66 SE10      30.04R
BARKSDALE AFB  MOCLDY    73  62  70 SE6       30.05R
DTN SHREVEPORT NOT AVBL

$$

LAZ014-016-060400-
NORTHEAST LOUISIANA

CITY           SKY/WX    TMP DP  RH WIND       PRES   REMARKS
MONROE         CLEAR     73  61  65 VRB3      30.10R
TALLULAH       CLEAR     65  61  87 SE3       30.11R

$$




USA.gov is the U.S. government's official web portal to all federal, state and local government web resources and services.